Time,TemperatureF,DewpointF,PressureIn,WindDirection,WindDirectionDegrees,WindSpeedMPH,WindSpeedGustMPH,Humidity,HourlyPrecipIn,Conditions,Clouds,dailyrainin,SoftwareType,DateUTC
2015-04-01 00:03:00,47.4,19.8,30.00,West,278,1.0,2.0,33,0.00,,---,0.00,VWS V15.00,2015-04-01 06:03:00,
2015-04-01 00:08:00,47.1,19.5,30.00,WSW,247,0.0,2.0,33,0.00,,---,0.00,VWS V15.00,2015-04-01 06:08:00,
2015-04-01 00:13:00,47.1,19.5,29.99,West,266,1.0,2.0,33,0.00,,---,0.00,VWS V15.00,2015-04-01 06:13:00,
2015-04-01 00:18:00,47.0,19.4,29.99,West,263,0.0,2.0,33,0.00,,---,0.00,VWS V15.00,2015-04-01 06:18:00,
2015-04-01 00:23:00,47.1,19.5,29.99,West,271,0.0,2.0,33,0.00,,---,0.00,VWS V15.00,2015-04-01 06:23:00,
2015-04-01 00:28:00,46.7,19.1,29.99,West,263,0.0,2.0,33,0.00,,---,0.00,VWS V15.00,2015-04-01 06:28:00,
2015-04-01 00:33:00,46.3,19.5,29.99,North,351,0.0,3.0,34,0.00,,---,0.00,VWS V15.00,2015-04-01 06:33:00,
2015-04-01 00:38:00,45.9,19.1,29.99,North,352,0.0,3.0,34,0.00,,---,0.00,VWS V15.00,2015-04-01 06:38:00,
2015-04-01 00:43:00,45.9,19.1,29.98,SW,217,0.0,3.0,34,0.00,,---,0.00,VWS V15.00,2015-04-01 06:43:00,
2015-04-01 00:48:00,46.3,19.5,29.98,West,278,0.0,3.0,34,0.00,,---,0.00,VWS V15.00,2015-04-01 06:48:00,
2015-04-01 00:53:00,46.7,19.1,29.98,West,259,1.0,3.0,33,0.00,,---,0.00,VWS V15.00,2015-04-01 06:53:00,
2015-04-01 00:58:00,47.2,18.9,29.97,West,266,0.0,3.0,32,0.00,,---,0.00,VWS V15.00,2015-04-01 06:58:00,
2015-04-01 01:03:00,47.1,18.8,29.97,SSE,158,1.0,3.0,32,0.00,,---,0.00,VWS V15.00,2015-04-01 07:03:00,
2015-04-01 01:08:00,47.6,18.5,29.97,SW,233,0.0,3.0,31,0.00,,---,0.00,VWS V15.00,2015-04-01 07:08:00,
2015-04-01 01:13:00,48.0,18.1,29.96,SSW,210,2.0,6.0,30,0.00,,---,0.00,VWS V15.00,2015-04-01 07:13:00,
2015-04-01 01:18:00,48.4,17.6,29.96,West,277,2.0,6.0,29,0.00,,---,0.00,VWS V15.00,2015-04-01 07:18:00,
2015-04-01 01:23:00,48.7,17.9,29.96,SSW,193,0.0,6.0,29,0.00,,---,0.00,VWS V15.00,2015-04-01 07:23:00,
2015-04-01 01:28:00,48.8,17.2,29.96,WNW,300,2.0,10.0,28,0.00,,---,0.00,VWS V15.00,2015-04-01 07:28:00,
2015-04-01 01:33:00,48.9,18.1,29.95,WSW,248,0.0,0.0,29,0.00,,---,0.00,VWS V15.00,2015-04-01 07:33:00,
2015-04-01 01:38:00,48.7,17.1,29.95,West,269,6.0,8.0,28,0.00,,---,0.00,VWS V15.00,2015-04-01 07:38:00,
2015-04-01 01:43:00,48.9,18.1,29.95,NNW,330,0.0,8.0,29,0.00,,---,0.00,VWS V15.00,2015-04-01 07:43:00,
2015-04-01 01:48:00,48.6,17.0,29.94,NNW,346,2.0,8.0,28,0.00,,---,0.00,VWS V15.00,2015-04-01 07:48:00,
2015-04-01 01:53:00,47.9,17.2,29.94,NNW,345,0.0,8.0,29,0.00,,---,0.00,VWS V15.00,2015-04-01 07:53:00,
2015-04-01 01:58:00,47.2,17.4,29.94,ESE,117,0.0,8.0,30,0.00,,---,0.00,VWS V15.00,2015-04-01 07:58:00,
2015-04-01 02:03:00,47.3,17.5,29.94,ENE,74,2.0,2.0,30,0.00,,---,0.00,VWS V15.00,2015-04-01 08:03:00,
2015-04-01 02:08:00,47.9,18.0,29.94,NNW,327,0.0,2.0,30,0.00,,---,0.00,VWS V15.00,2015-04-01 08:08:00,
2015-04-01 02:13:00,47.4,17.5,29.94,NNW,335,0.0,2.0,30,0.00,,---,0.00,VWS V15.00,2015-04-01 08:13:00,
2015-04-01 02:18:00,46.7,17.7,29.93,ESE,113,0.0,2.0,31,0.00,,---,0.00,VWS V15.00,2015-04-01 08:18:00,
2015-04-01 02:23:00,46.3,18.1,29.94,East,95,0.0,3.0,32,0.00,,---,0.00,VWS V15.00,2015-04-01 08:23:00,
2015-04-01 02:28:00,46.1,17.9,29.93,NNE,12,0.0,3.0,32,0.00,,---,0.00,VWS V15.00,2015-04-01 08:28:00,
2015-04-01 02:33:00,46.0,17.8,29.93,NNW,338,1.0,5.0,32,0.00,,---,0.00,VWS V15.00,2015-04-01 08:33:00,
2015-04-01 02:38:00,46.5,17.5,29.93,WNW,295,0.0,5.0,31,0.00,,---,0.00,VWS V15.00,2015-04-01 08:38:00,
2015-04-01 02:43:00,47.2,17.4,29.93,West,280,0.0,5.0,30,0.00,,---,0.00,VWS V15.00,2015-04-01 08:43:00,
2015-04-01 02:48:00,47.6,17.7,29.92,North,356,2.0,5.0,30,0.00,,---,0.00,VWS V15.00,2015-04-01 08:48:00,
2015-04-01 02:53:00,47.3,17.5,29.92,NW,319,2.0,5.0,30,0.00,,---,0.00,VWS V15.00,2015-04-01 08:53:00,
2015-04-01 02:58:00,47.2,18.1,29.92,East,96,1.0,5.0,31,0.00,,---,0.00,VWS V15.00,2015-04-01 08:58:00,
2015-04-01 03:03:00,47.6,17.7,29.92,North,356,1.0,3.0,30,0.00,,---,0.00,VWS V15.00,2015-04-01 09:03:00,
2015-04-01 03:08:00,47.5,17.6,29.92,NNW,340,2.0,6.0,30,0.00,,---,0.00,VWS V15.00,2015-04-01 09:08:00,
2015-04-01 03:13:00,48.0,17.3,29.92,East,82,11.0,11.0,29,0.00,,---,0.00,VWS V15.00,2015-04-01 09:13:00,
2015-04-01 03:18:00,48.4,16.8,29.91,SE,136,0.0,12.0,28,0.00,,---,0.00,VWS V15.00,2015-04-01 09:18:00,
2015-04-01 03:23:00,48.6,17.8,29.91,NNW,329,1.0,12.0,29,0.00,,---,0.00,VWS V15.00,2015-04-01 09:23:00,
2015-04-01 03:28:00,48.7,17.1,29.90,WNW,297,3.0,14.0,28,0.00,,---,0.00,VWS V15.00,2015-04-01 09:28:00,
2015-04-01 03:33:00,48.9,17.2,29.90,ESE,103,1.0,5.0,28,0.00,,---,0.00,VWS V15.00,2015-04-01 09:33:00,
2015-04-01 03:38:00,48.8,17.2,29.89,NNW,344,1.0,5.0,28,0.00,,---,0.00,VWS V15.00,2015-04-01 09:38:00,
2015-04-01 03:43:00,48.4,16.8,29.89,NNW,347,5.0,10.0,28,0.00,,---,0.00,VWS V15.00,2015-04-01 09:43:00,
2015-04-01 03:48:00,48.6,17.0,29.89,North,359,7.0,10.0,28,0.00,,---,0.00,VWS V15.00,2015-04-01 09:48:00,
2015-04-01 03:53:00,48.8,17.2,29.89,East,101,4.0,10.0,28,0.00,,---,0.00,VWS V15.00,2015-04-01 09:53:00,
2015-04-01 03:58:00,49.1,16.6,29.88,WNW,297,3.0,18.0,27,0.00,,---,0.00,VWS V15.00,2015-04-01 09:58:00,
2015-04-01 04:03:00,49.3,16.8,29.88,SW,228,8.0,8.0,27,0.00,,---,0.00,VWS V15.00,2015-04-01 10:03:00,
2015-04-01 04:08:00,49.3,16.8,29.88,ESE,104,10.0,10.0,27,0.00,,---,0.00,VWS V15.00,2015-04-01 10:08:00,
2015-04-01 04:13:00,49.4,16.8,29.88,East,97,2.0,10.0,27,0.00,,---,0.00,VWS V15.00,2015-04-01 10:13:00,
2015-04-01 04:18:00,49.3,16.8,29.88,WNW,285,2.0,10.0,27,0.00,,---,0.00,VWS V15.00,2015-04-01 10:18:00,
2015-04-01 04:23:00,49.4,16.8,29.88,WSW,257,4.0,13.0,27,0.00,,---,0.00,VWS V15.00,2015-04-01 10:23:00,
2015-04-01 04:28:00,49.2,16.7,29.88,South,176,2.0,13.0,27,0.00,,---,0.00,VWS V15.00,2015-04-01 10:28:00,
2015-04-01 04:33:00,48.9,17.2,29.88,West,266,3.0,5.0,28,0.00,,---,0.00,VWS V15.00,2015-04-01 10:33:00,
2015-04-01 04:38:00,48.7,17.1,29.88,SSE,153,0.0,5.0,28,0.00,,---,0.00,VWS V15.00,2015-04-01 10:38:00,
2015-04-01 04:43:00,48.0,17.3,29.88,NNW,340,4.0,6.0,29,0.00,,---,0.00,VWS V15.00,2015-04-01 10:43:00,
2015-04-01 04:48:00,47.8,17.1,29.88,NNE,25,0.0,6.0,29,0.00,,---,0.00,VWS V15.00,2015-04-01 10:48:00,
2015-04-01 04:53:00,48.3,17.5,29.88,NW,307,4.0,13.0,29,0.00,,---,0.00,VWS V15.00,2015-04-01 10:53:00,
2015-04-01 04:58:00,48.4,17.6,29.88,North,354,1.0,13.0,29,0.00,,---,0.00,VWS V15.00,2015-04-01 10:58:00,
2015-04-01 05:03:00,47.8,17.9,29.89,South,182,4.0,4.0,30,0.00,,---,0.00,VWS V15.00,2015-04-01 11:03:00,
2015-04-01 05:08:00,48.1,17.4,29.89,WSW,257,2.0,9.0,29,0.00,,---,0.00,VWS V15.00,2015-04-01 11:08:00,
2015-04-01 05:13:00,48.0,17.3,29.88,SE,131,2.0,9.0,29,0.00,,---,0.00,VWS V15.00,2015-04-01 11:13:00,
2015-04-01 05:18:00,48.0,17.3,29.88,SE,132,1.0,9.0,29,0.00,,---,0.00,VWS V15.00,2015-04-01 11:18:00,
2015-04-01 05:23:00,47.9,18.0,29.89,WNW,283,1.0,9.0,30,0.00,,---,0.00,VWS V15.00,2015-04-01 11:23:00,
2015-04-01 05:27:00,47.7,17.8,29.89,ESE,122,0.0,9.0,30,0.00,,---,0.00,VWS V15.00,2015-04-01 11:27:00,
2015-04-01 05:33:00,47.2,18.1,29.89,ESE,122,0.0,0.0,31,0.00,,---,0.00,VWS V15.00,2015-04-01 11:33:00,
2015-04-01 05:38:00,46.6,18.3,29.89,NE,51,0.0,3.0,32,0.00,,---,0.00,VWS V15.00,2015-04-01 11:38:00,
2015-04-01 05:42:00,45.8,18.4,29.89,NNW,347,0.0,3.0,33,0.00,,---,0.00,VWS V15.00,2015-04-01 11:42:00,
2015-04-01 05:47:00,45.5,18.8,29.89,ESE,118,1.0,6.0,34,0.00,,---,0.00,VWS V15.00,2015-04-01 11:47:00,
2015-04-01 05:53:00,46.7,18.4,29.89,ESE,120,0.0,9.0,32,0.00,,---,0.00,VWS V15.00,2015-04-01 11:53:00,
2015-04-01 05:58:00,47.1,18.8,29.90,SSE,166,2.0,9.0,32,0.00,,---,0.00,VWS V15.00,2015-04-01 11:58:00,
2015-04-01 06:03:00,47.2,18.1,29.90,North,9,1.0,5.0,31,0.00,,---,0.00,VWS V15.00,2015-04-01 12:03:00,
2015-04-01 06:08:00,47.8,17.9,29.89,NNW,327,3.0,6.0,30,0.00,,---,0.00,VWS V15.00,2015-04-01 12:08:00,
2015-04-01 06:13:00,47.8,17.9,29.89,North,356,2.0,7.0,30,0.00,,---,0.00,VWS V15.00,2015-04-01 12:13:00,
2015-04-01 06:18:00,47.7,17.8,29.90,NW,311,3.0,13.0,30,0.00,,---,0.00,VWS V15.00,2015-04-01 12:18:00,
2015-04-01 06:23:00,48.0,18.1,29.91,WSW,240,0.0,13.0,30,0.00,,---,0.00,VWS V15.00,2015-04-01 12:23:00,
2015-04-01 06:28:00,48.0,18.1,29.91,South,184,1.0,13.0,30,0.00,,---,0.00,VWS V15.00,2015-04-01 12:28:00,
2015-04-01 06:32:00,47.8,17.9,29.91,ESE,122,0.0,10.0,30,0.00,,---,0.00,VWS V15.00,2015-04-01 12:32:00,
2015-04-01 06:37:00,47.4,17.5,29.92,South,191,1.0,10.0,30,0.00,,---,0.00,VWS V15.00,2015-04-01 12:37:00,
2015-04-01 06:42:00,47.2,17.4,29.92,ESE,107,0.0,10.0,30,0.00,,---,0.00,VWS V15.00,2015-04-01 12:42:00,
2015-04-01 06:47:00,47.2,17.4,29.92,WSW,246,4.0,10.0,30,0.00,,---,0.00,VWS V15.00,2015-04-01 12:47:00,
2015-04-01 06:52:00,47.3,17.5,29.92,North,358,1.0,10.0,30,0.00,,---,0.00,VWS V15.00,2015-04-01 12:52:00,
2015-04-01 06:58:00,47.4,17.5,29.92,NNW,340,5.0,10.0,30,0.00,,---,0.00,VWS V15.00,2015-04-01 12:58:00,
2015-04-01 07:03:00,47.5,17.6,29.93,North,350,5.0,5.0,30,0.00,,---,0.00,VWS V15.00,2015-04-01 13:03:00,
2015-04-01 07:08:00,47.4,17.5,29.93,NW,326,0.0,6.0,30,0.00,,---,0.00,VWS V15.00,2015-04-01 13:08:00,
2015-04-01 07:13:00,47.3,17.5,29.93,WSW,248,1.0,6.0,30,0.00,,---,0.00,VWS V15.00,2015-04-01 13:13:00,
2015-04-01 07:17:00,47.1,17.3,29.93,SE,129,2.0,6.0,30,0.00,,---,0.00,VWS V15.00,2015-04-01 13:17:00,
2015-04-01 07:22:00,47.0,17.2,29.94,ESE,116,0.0,7.0,30,0.00,,---,0.00,VWS V15.00,2015-04-01 13:22:00,
2015-04-01 07:27:00,47.0,18.0,29.94,NW,323,2.0,7.0,31,0.00,,---,0.00,VWS V15.00,2015-04-01 13:27:00,
2015-04-01 07:32:00,47.0,18.0,29.95,WSW,238,4.0,7.0,31,0.00,,---,0.00,VWS V15.00,2015-04-01 13:32:00,
2015-04-01 07:37:00,47.0,18.0,29.95,WSW,257,1.0,7.0,31,0.00,,---,0.00,VWS V15.00,2015-04-01 13:37:00,
2015-04-01 07:42:00,47.0,18.0,29.95,SW,226,2.0,7.0,31,0.00,,---,0.00,VWS V15.00,2015-04-01 13:42:00,
2015-04-01 07:47:00,47.1,18.0,29.95,WSW,245,2.0,9.0,31,0.00,,---,0.00,VWS V15.00,2015-04-01 13:47:00,
2015-04-01 07:52:00,47.1,18.8,29.95,NE,43,4.0,9.0,32,0.00,,---,0.00,VWS V15.00,2015-04-01 13:52:00,
2015-04-01 07:57:00,47.0,18.7,29.95,SW,231,0.0,9.0,32,0.00,,---,0.00,VWS V15.00,2015-04-01 13:57:00,
2015-04-01 08:02:00,46.8,18.5,29.95,West,259,6.0,6.0,32,0.00,,---,0.00,VWS V15.00,2015-04-01 14:02:00,
2015-04-01 08:07:00,46.8,18.5,29.94,SW,235,1.0,7.0,32,0.00,,---,0.00,VWS V15.00,2015-04-01 14:07:00,
2015-04-01 08:12:00,46.8,18.5,29.95,SW,235,1.0,7.0,32,0.00,,---,0.00,VWS V15.00,2015-04-01 14:12:00,
2015-04-01 08:17:00,46.8,18.5,29.95,WSW,253,4.0,7.0,32,0.00,,---,0.00,VWS V15.00,2015-04-01 14:17:00,
2015-04-01 08:22:00,46.8,19.2,29.95,NNE,18,0.0,7.0,33,0.00,,---,0.00,VWS V15.00,2015-04-01 14:22:00,
2015-04-01 08:27:00,46.9,19.3,29.95,West,260,3.0,7.0,33,0.00,,---,0.00,VWS V15.00,2015-04-01 14:27:00,
2015-04-01 08:32:00,47.0,19.4,29.95,West,271,1.0,4.0,33,0.00,,---,0.00,VWS V15.00,2015-04-01 14:32:00,
2015-04-01 08:37:00,47.3,20.4,29.95,WSW,252,0.0,4.0,34,0.00,,---,0.00,VWS V15.00,2015-04-01 14:37:00,
2015-04-01 08:42:00,47.5,19.9,29.95,WNW,293,1.0,13.0,33,0.00,,---,0.00,VWS V15.00,2015-04-01 14:42:00,
2015-04-01 08:47:00,47.7,20.0,29.95,West,262,0.0,13.0,33,0.00,,---,0.00,VWS V15.00,2015-04-01 14:47:00,
2015-04-01 08:52:00,48.0,21.0,29.95,WSW,246,1.0,13.0,34,0.00,,---,0.00,VWS V15.00,2015-04-01 14:52:00,
2015-04-01 08:57:00,48.7,20.9,29.95,North,4,3.0,13.0,33,0.00,,---,0.00,VWS V15.00,2015-04-01 14:57:00,
2015-04-01 09:02:00,49.1,20.5,29.95,SSW,198,2.0,2.0,32,0.00,,---,0.00,VWS V15.00,2015-04-01 15:02:00,
2015-04-01 09:07:00,49.4,19.3,29.95,SW,230,2.0,7.0,30,0.00,,---,0.00,VWS V15.00,2015-04-01 15:07:00,
2015-04-01 09:12:00,49.2,19.9,29.96,WSW,241,1.0,9.0,31,0.00,,---,0.00,VWS V15.00,2015-04-01 15:12:00,
2015-04-01 09:17:00,49.4,20.8,29.95,SW,228,5.0,9.0,32,0.00,,---,0.00,VWS V15.00,2015-04-01 15:17:00,
2015-04-01 09:22:00,49.3,20.0,29.95,WNW,288,3.0,9.0,31,0.00,,---,0.00,VWS V15.00,2015-04-01 15:22:00,
2015-04-01 09:27:00,49.6,21.0,29.95,ENE,70,1.0,9.0,32,0.00,,---,0.00,VWS V15.00,2015-04-01 15:27:00,
2015-04-01 09:32:00,50.5,21.8,29.95,SSW,200,1.0,5.0,32,0.00,,---,0.00,VWS V15.00,2015-04-01 15:32:00,
2015-04-01 09:37:00,50.8,20.5,29.95,SE,139,3.0,5.0,30,0.00,,---,0.00,VWS V15.00,2015-04-01 15:37:00,
2015-04-01 09:42:00,51.0,20.7,29.95,SW,222,2.0,5.0,30,0.00,,---,0.00,VWS V15.00,2015-04-01 15:42:00,
2015-04-01 09:47:00,51.9,21.5,29.95,SE,132,1.0,5.0,30,0.00,,---,0.00,VWS V15.00,2015-04-01 15:47:00,
2015-04-01 09:52:00,52.1,20.8,29.95,NNE,12,3.0,5.0,29,0.00,,---,0.00,VWS V15.00,2015-04-01 15:52:00,
2015-04-01 09:57:00,52.4,21.1,29.95,ESE,117,0.0,5.0,29,0.00,,---,0.00,VWS V15.00,2015-04-01 15:57:00,
2015-04-01 10:02:00,52.5,21.2,29.96,ESE,103,3.0,3.0,29,0.00,,---,0.00,VWS V15.00,2015-04-01 16:02:00,
2015-04-01 10:07:00,52.8,21.4,29.96,West,273,2.0,6.0,29,0.00,,---,0.00,VWS V15.00,2015-04-01 16:07:00,
2015-04-01 10:12:00,52.3,21.0,29.96,SE,145,0.0,8.0,29,0.00,,---,0.00,VWS V15.00,2015-04-01 16:12:00,
2015-04-01 10:17:00,52.4,21.1,29.96,SSE,156,1.0,8.0,29,0.00,,---,0.00,VWS V15.00,2015-04-01 16:17:00,
2015-04-01 10:22:00,52.2,20.9,29.96,NE,41,5.0,8.0,29,0.00,,---,0.00,VWS V15.00,2015-04-01 16:22:00,
2015-04-01 10:27:00,51.0,19.9,29.96,WNW,283,1.0,10.0,29,0.00,,---,0.00,VWS V15.00,2015-04-01 16:27:00,
2015-04-01 10:32:00,51.5,21.9,29.95,SW,233,3.0,4.0,31,0.00,,---,0.00,VWS V15.00,2015-04-01 16:32:00,
2015-04-01 10:37:00,52.0,20.8,29.95,West,273,2.0,6.0,29,0.00,,---,0.00,VWS V15.00,2015-04-01 16:37:00,
2015-04-01 10:42:00,52.1,21.6,29.96,South,191,2.0,6.0,30,0.00,,---,0.00,VWS V15.00,2015-04-01 16:42:00,
2015-04-01 10:47:00,52.3,21.0,29.96,SSW,200,3.0,8.0,29,0.00,,---,0.00,VWS V15.00,2015-04-01 16:47:00,
2015-04-01 10:52:00,52.2,20.9,29.95,South,174,0.0,8.0,29,0.00,,---,0.00,VWS V15.00,2015-04-01 16:52:00,
2015-04-01 10:57:00,52.6,22.1,29.95,South,175,2.0,8.0,30,0.00,,---,0.00,VWS V15.00,2015-04-01 16:57:00,
2015-04-01 11:02:00,53.4,22.0,29.96,SSE,154,5.0,5.0,29,0.00,,---,0.00,VWS V15.00,2015-04-01 17:02:00,
2015-04-01 11:07:00,52.6,20.4,29.95,WSW,256,6.0,9.0,28,0.00,,---,0.00,VWS V15.00,2015-04-01 17:07:00,
2015-04-01 11:12:00,51.7,21.3,29.95,SW,219,1.0,9.0,30,0.00,,---,0.00,VWS V15.00,2015-04-01 17:12:00,
2015-04-01 11:17:00,51.1,20.8,29.95,West,277,0.0,9.0,30,0.00,,---,0.00,VWS V15.00,2015-04-01 17:17:00,
2015-04-01 11:22:00,51.2,22.4,29.95,SSE,149,2.0,9.0,32,0.00,,---,0.00,VWS V15.00,2015-04-01 17:22:00,
2015-04-01 11:27:00,51.3,21.7,29.94,South,169,1.0,9.0,31,0.00,,---,0.00,VWS V15.00,2015-04-01 17:27:00,
2015-04-01 11:32:00,51.7,22.1,29.95,SSW,194,1.0,3.0,31,0.00,,---,0.00,VWS V15.00,2015-04-01 17:32:00,
2015-04-01 11:37:00,51.6,19.6,29.95,WSW,240,7.0,8.0,28,0.00,,---,0.00,VWS V15.00,2015-04-01 17:37:00,
2015-04-01 11:42:00,50.9,19.8,29.95,SW,221,3.0,10.0,29,0.00,,---,0.00,VWS V15.00,2015-04-01 17:42:00,
2015-04-01 11:47:00,50.0,20.6,29.94,SW,215,8.0,11.0,31,0.00,,---,0.00,VWS V15.00,2015-04-01 17:47:00,
2015-04-01 11:52:00,49.4,21.5,29.95,WNW,291,7.0,11.0,33,0.00,,---,0.00,VWS V15.00,2015-04-01 17:52:00,
2015-04-01 11:57:00,48.4,23.3,29.95,South,188,3.0,18.0,37,0.00,,---,0.00,VWS V15.00,2015-04-01 17:57:00,
2015-04-01 12:02:00,49.6,25.0,29.95,SSW,210,4.0,7.0,38,0.00,,---,0.00,VWS V15.00,2015-04-01 18:02:00,
2015-04-01 12:07:00,50.6,25.3,29.94,SSE,157,4.0,8.0,37,0.00,,---,0.00,VWS V15.00,2015-04-01 18:07:00,
2015-04-01 12:12:00,52.4,23.4,29.94,SSE,168,7.0,8.0,32,0.00,,---,0.00,VWS V15.00,2015-04-01 18:12:00,
2015-04-01 12:17:00,53.6,22.9,29.93,SSE,153,5.0,8.0,30,0.00,,---,0.00,VWS V15.00,2015-04-01 18:17:00,
2015-04-01 12:22:00,53.4,22.8,29.94,South,188,4.0,8.0,30,0.00,,---,0.00,VWS V15.00,2015-04-01 18:22:00,
2015-04-01 12:27:00,52.6,22.1,29.93,SW,218,5.0,10.0,30,0.00,,---,0.00,VWS V15.00,2015-04-01 18:27:00,
2015-04-01 12:32:00,52.5,23.5,29.92,WNW,293,3.0,8.0,32,0.00,,---,0.00,VWS V15.00,2015-04-01 18:32:00,
2015-04-01 12:37:00,52.8,21.4,29.93,WSW,247,1.0,9.0,29,0.00,,---,0.00,VWS V15.00,2015-04-01 18:37:00,
2015-04-01 12:42:00,53.6,22.1,29.92,SE,130,4.0,9.0,29,0.00,,---,0.00,VWS V15.00,2015-04-01 18:42:00,
2015-04-01 12:47:00,54.9,22.4,29.92,East,89,0.0,9.0,28,0.00,,---,0.00,VWS V15.00,2015-04-01 18:47:00,
2015-04-01 12:52:00,55.0,24.9,29.92,SSE,148,3.0,9.0,31,0.00,,---,0.00,VWS V15.00,2015-04-01 18:52:00,
2015-04-01 12:57:00,54.5,21.2,29.93,SW,221,5.0,9.0,27,0.00,,---,0.00,VWS V15.00,2015-04-01 18:57:00,
2015-04-01 13:02:00,52.8,21.4,29.94,WSW,240,2.0,9.0,29,0.00,,---,0.00,VWS V15.00,2015-04-01 19:02:00,
2015-04-01 13:07:00,51.7,23.5,29.94,NW,316,4.0,11.0,33,0.00,,---,0.00,VWS V15.00,2015-04-01 19:07:00,
2015-04-01 13:12:00,49.9,24.0,29.93,SSE,160,0.0,11.0,36,0.00,,---,0.00,VWS V15.00,2015-04-01 19:12:00,
2015-04-01 13:17:00,50.6,25.3,29.93,South,170,4.0,11.0,37,0.00,,---,0.00,VWS V15.00,2015-04-01 19:17:00,
2015-04-01 13:22:00,51.1,23.7,29.93,SW,231,4.0,11.0,34,0.00,,---,0.00,VWS V15.00,2015-04-01 19:22:00,
2015-04-01 13:27:00,50.8,24.1,29.93,South,187,3.0,11.0,35,0.00,,---,0.00,VWS V15.00,2015-04-01 19:27:00,
2015-04-01 13:32:00,50.6,24.6,29.93,WSW,257,1.0,13.0,36,0.00,,---,0.00,VWS V15.00,2015-04-01 19:32:00,
2015-04-01 13:37:00,52.1,26.6,29.92,SW,226,2.0,13.0,37,0.00,,---,0.00,VWS V15.00,2015-04-01 19:37:00,
2015-04-01 13:42:00,52.8,27.3,29.92,ESE,123,2.0,13.0,37,0.00,,---,0.00,VWS V15.00,2015-04-01 19:42:00,
2015-04-01 13:47:00,53.3,26.4,29.91,SE,141,0.0,13.0,35,0.00,,---,0.00,VWS V15.00,2015-04-01 19:47:00,
2015-04-01 13:52:00,54.1,23.4,29.91,WSW,238,6.0,13.0,30,0.00,,---,0.00,VWS V15.00,2015-04-01 19:52:00,
2015-04-01 13:57:00,53.8,23.1,29.92,WSW,257,4.0,13.0,30,0.00,,---,0.00,VWS V15.00,2015-04-01 19:57:00,
2015-04-01 14:02:00,52.0,24.5,29.93,NNW,330,2.0,9.0,34,0.00,,---,0.00,VWS V15.00,2015-04-01 20:02:00,
2015-04-01 14:07:00,51.6,28.1,29.92,SSE,163,6.0,9.0,40,0.00,,---,0.00,VWS V15.00,2015-04-01 20:07:00,
2015-04-01 14:12:00,51.2,28.9,29.91,West,262,1.0,9.0,42,0.00,,---,0.00,VWS V15.00,2015-04-01 20:12:00,
2015-04-01 14:17:00,50.6,28.4,29.91,NNW,346,2.0,9.0,42,0.00,,---,0.00,VWS V15.00,2015-04-01 20:17:00,
2015-04-01 14:22:00,50.7,26.0,29.91,ESE,115,0.0,9.0,38,0.00,,---,0.00,VWS V15.00,2015-04-01 20:22:00,
2015-04-01 14:27:00,51.7,27.6,29.90,SE,132,1.0,9.0,39,0.00,,---,0.00,VWS V15.00,2015-04-01 20:27:00,
2015-04-01 14:32:00,52.4,25.6,29.91,SSE,153,2.0,8.0,35,0.00,,---,0.00,VWS V15.00,2015-04-01 20:32:00,
2015-04-01 14:37:00,52.2,23.2,29.90,West,274,4.0,8.0,32,0.00,,---,0.00,VWS V15.00,2015-04-01 20:37:00,
2015-04-01 14:42:00,53.1,23.3,29.90,SSE,167,5.0,11.0,31,0.00,,---,0.00,VWS V15.00,2015-04-01 20:42:00,
2015-04-01 14:47:00,52.8,21.4,29.91,WNW,290,4.0,11.0,29,0.00,,---,0.00,VWS V15.00,2015-04-01 20:47:00,
2015-04-01 14:52:00,51.5,21.1,29.92,WNW,293,8.0,12.0,30,0.00,,---,0.00,VWS V15.00,2015-04-01 20:52:00,
2015-04-01 14:57:00,49.5,24.3,29.92,WNW,291,2.0,12.0,37,0.00,,---,0.00,VWS V15.00,2015-04-01 20:57:00,
2015-04-01 15:02:00,48.2,25.0,29.92,West,260,2.0,7.0,40,0.00,,---,0.00,VWS V15.00,2015-04-01 21:02:00,
2015-04-01 15:07:00,47.5,25.6,29.92,West,272,2.0,7.0,42,0.00,,---,0.00,VWS V15.00,2015-04-01 21:07:00,
2015-04-01 15:12:00,47.3,27.0,29.92,SW,236,3.0,7.0,45,0.00,,---,0.00,VWS V15.00,2015-04-01 21:12:00,
2015-04-01 15:17:00,47.0,27.8,29.93,SSE,159,2.0,7.0,47,0.00,,---,0.00,VWS V15.00,2015-04-01 21:17:00,
2015-04-01 15:22:00,46.5,28.4,29.93,SW,219,2.0,7.0,49,0.00,,---,0.00,VWS V15.00,2015-04-01 21:22:00,
2015-04-01 15:27:00,45.9,28.3,29.94,South,190,2.0,7.0,50,0.00,,---,0.00,VWS V15.00,2015-04-01 21:27:00,
2015-04-01 15:32:00,45.9,30.2,29.94,West,276,6.0,7.0,54,0.00,,---,0.00,VWS V15.00,2015-04-01 21:32:00,
2015-04-01 15:37:00,45.7,30.0,29.95,West,273,3.0,7.0,54,0.00,,---,0.00,VWS V15.00,2015-04-01 21:37:00,
2015-04-01 15:42:00,44.7,31.7,29.95,West,264,2.0,11.0,60,0.00,,---,0.00,VWS V15.00,2015-04-01 21:42:00,
2015-04-01 15:47:00,44.4,31.8,29.95,NNW,342,1.0,11.0,61,0.00,,---,0.00,VWS V15.00,2015-04-01 21:47:00,
2015-04-01 15:52:00,44.1,31.9,29.94,WSW,248,0.0,11.0,62,0.00,,---,0.00,VWS V15.00,2015-04-01 21:52:00,
2015-04-01 15:57:00,43.6,31.0,29.96,WNW,302,2.0,11.0,61,0.00,,---,0.00,VWS V15.00,2015-04-01 21:57:00,
2015-04-01 16:02:00,43.1,31.0,29.97,WSW,243,5.0,12.0,62,0.00,,---,0.00,VWS V15.00,2015-04-01 22:02:00,
2015-04-01 16:07:00,41.6,31.8,29.96,SW,215,2.0,12.0,68,0.00,,---,0.00,VWS V15.00,2015-04-01 22:07:00,
2015-04-01 16:12:00,40.6,32.3,29.96,WNW,287,1.0,12.0,72,0.00,,---,0.00,VWS V15.00,2015-04-01 22:12:00,
2015-04-01 16:17:00,40.4,31.0,29.96,SW,235,1.0,12.0,69,0.00,,---,0.00,VWS V15.00,2015-04-01 22:17:00,
2015-04-01 16:22:00,40.5,30.8,29.96,WNW,293,1.0,12.0,68,0.00,,---,0.00,VWS V15.00,2015-04-01 22:22:00,
2015-04-01 16:27:00,40.5,30.8,29.95,SSE,156,2.0,12.0,68,0.00,,---,0.00,VWS V15.00,2015-04-01 22:27:00,
2015-04-01 16:32:00,40.6,30.5,29.94,SE,125,1.0,2.0,67,0.00,,---,0.00,VWS V15.00,2015-04-01 22:32:00,
2015-04-01 16:37:00,41.1,30.6,29.94,East,96,1.0,2.0,66,0.00,,---,0.00,VWS V15.00,2015-04-01 22:37:00,
2015-04-01 16:42:00,42.5,30.8,29.92,East,92,1.0,4.0,63,0.00,,---,0.00,VWS V15.00,2015-04-01 22:42:00,
2015-04-01 16:47:00,44.8,29.2,29.92,WSW,250,5.0,7.0,54,0.00,,---,0.00,VWS V15.00,2015-04-01 22:47:00,
2015-04-01 16:52:00,46.7,27.6,29.92,WSW,250,3.0,8.0,47,0.00,,---,0.00,VWS V15.00,2015-04-01 22:52:00,
2015-04-01 16:57:00,47.3,27.0,29.92,WSW,253,0.0,8.0,45,0.00,,---,0.00,VWS V15.00,2015-04-01 22:57:00,
2015-04-01 17:02:00,47.4,27.1,29.91,West,280,3.0,4.0,45,0.00,,---,0.00,VWS V15.00,2015-04-01 23:02:00,
2015-04-01 17:07:00,47.0,26.8,29.92,South,190,0.0,4.0,45,0.00,,---,0.00,VWS V15.00,2015-04-01 23:07:00,
2015-04-01 17:12:00,46.4,26.2,29.92,SW,232,2.0,5.0,45,0.00,,---,0.00,VWS V15.00,2015-04-01 23:12:00,
2015-04-01 17:17:00,46.1,27.5,29.91,SW,236,1.0,5.0,48,0.00,,---,0.00,VWS V15.00,2015-04-01 23:17:00,
2015-04-01 17:22:00,45.6,28.0,29.91,ESE,112,5.0,10.0,50,0.00,,---,0.00,VWS V15.00,2015-04-01 23:22:00,
2015-04-01 17:27:00,44.4,28.4,29.91,ESE,122,1.0,11.0,53,0.00,,---,0.00,VWS V15.00,2015-04-01 23:27:00,
2015-04-01 17:32:00,43.5,27.5,29.92,ESE,122,1.0,11.0,53,0.00,,---,0.00,VWS V15.00,2015-04-01 23:32:00,